Siwei Gaojing 2-03

operational
NORAD ID: 62079 Int'l Des: 2024-218 Owner: SIWEI Country: CN
LEOCIRCULARRETROGRADESSO

About Siwei Gaojing 2-03

Description loading...

Live Position

Loading 3D Globe...

Upcoming Passes

Altitude History

Altitude vs Time

uPlot chart will show altitude changes over time

Two-Line Element Set

1 62079U 24218B 25314.58254655 .00004478 00000-0 21279-3 0 9993
2 62079 97.4393 320.0603 0001645 87.2855 272.8568 15.19724089 53244
Epoch: Nov 10, 2025 • Age: 25 hours

Current Status

Altitude 535.8 km
Velocity 7.59 km/s
Sub-Earth Point -79.40°S, 176.41°W
Launch Date Nov 24, 2024
Age 0.9 years
Type other

Technical Details

Classification Payload
Mass 600.00 kg
Dry Mass 500.00 kg
Total Mass 600.00 kg
Length 0.50 m
Diameter 0.50 m
Span 0.50 m
Shape Box
Manufacturer DFHZ
Bus Type Siwei
Phase Status In Orbit
Owner/State SIWEI/CN

Large Constellations

Loading constellations...